When you browse on this site, cookies collect data to enhance your experience and personalize the content and advertising you see.
Visit our Privacy Policy to learn more. By continuing to use the site, you agree to this use of cookies and data.
  • In Schweiz
  • Länderverzeichnis
  • Für 7 Tage
  • Wassertemperatur
  • Wetterkarte
  • Widgets
  • user-avatar
    Anmelden

    Stündliche Wetter Krupec

    Heute, 21 August, Mittwoch

    Zeit Temperatur Niederschläge Wind Luftdruck Luftfeuchtigkeit
    00:00 +20°C° 0 mm 1 m/S 752 mmHg 82%
    01:00 +19°C° 0 mm 1 m/S 752 mmHg 83%
    02:00 +17°C° 0 mm 0 m/S 753 mmHg 85%
    03:00 +17°C° 0 mm 0 m/S 753 mmHg 85%
    04:00 +17°C° 0 mm 0 m/S 753 mmHg 86%
    05:00 +17°C° 0 mm 0 m/S 753 mmHg 86%
    06:00 +19°C° 0 mm 0 m/S 753 mmHg 82%
    07:00 +20°C° 0 mm 0 m/S 753 mmHg 77%
    08:00 +22°C° 0 mm 0 m/S 753 mmHg 73%
    09:00 +23°C° 0 mm 0 m/S 753 mmHg 70%
    10:00 +27°C° 0 mm 1 m/S 753 mmHg 66%
    11:00 +28°C° 0 mm 1 m/S 753 mmHg 63%
    12:00 +28°C° 0 mm 1 m/S 753 mmHg 61%
    13:00 +29°C° 0 mm 1 m/S 753 mmHg 59%
    14:00 +29°C° 0 mm 1 m/S 753 mmHg 57%
    15:00 +29°C° 0 mm 1 m/S 752 mmHg 61%
    16:00 +28°C° 0 mm 1 m/S 752 mmHg 64%
    17:00 +28°C° 0 mm 1 m/S 752 mmHg 67%
    18:00 +26°C° 0 mm 1 m/S 752 mmHg 72%
    19:00 +24°C° 0 mm 1 m/S 751 mmHg 76%
    20:00 +23°C° 0 mm 1 m/S 751 mmHg 80%
    21:00 +22°C° 0 mm 1 m/S 751 mmHg 81%
    22:00 +22°C° 0 mm 1 m/S 751 mmHg 83%
    23:00 +20°C° 0 mm 2 m/S 751 mmHg 85%

    Morgen, 22 August, Donnerstag

    Zeit Temperatur Niederschläge Wind Luftdruck Luftfeuchtigkeit
    00:00 +20°C° 0 mm 2 m/S 751 mmHg 86%
    01:00 +20°C° 0 mm 2 m/S 751 mmHg 87%
    02:00 +19°C° 0 mm 2 m/S 751 mmHg 88%
    03:00 +19°C° 0 mm 2 m/S 751 mmHg 88%
    04:00 +19°C° 0 mm 2 m/S 750 mmHg 89%
    05:00 +19°C° 0 mm 2 m/S 750 mmHg 90%
    06:00 +20°C° 0 mm 2 m/S 750 mmHg 85%
    07:00 +23°C° 0 mm 2 m/S 750 mmHg 80%
    08:00 +24°C° 0 mm 2 m/S 750 mmHg 75%
    09:00 +26°C° 0 mm 2 m/S 750 mmHg 71%
    10:00 +27°C° 0 mm 2 m/S 750 mmHg 66%
    11:00 +28°C° 0 mm 2 m/S 750 mmHg 62%
    12:00 +28°C° 0.3 mm 2 m/S 750 mmHg 63%
    13:00 +28°C° 0.3 mm 3 m/S 750 mmHg 65%
    14:00 +28°C° 0.3 mm 3 m/S 750 mmHg 67%
    15:00 +26°C° 0.5 mm 4 m/S 750 mmHg 73%
    16:00 +25°C° 0.5 mm 4 m/S 750 mmHg 79%
    17:00 +22°C° 0.5 mm 5 m/S 751 mmHg 85%
    18:00 +20°C° 0.1 mm 5 m/S 751 mmHg 86%
    19:00 +19°C° 0.1 mm 5 m/S 752 mmHg 87%
    20:00 +17°C° 0.1 mm 4 m/S 752 mmHg 88%
    21:00 +17°C° 0 mm 4 m/S 752 mmHg 89%
    22:00 +15°C° 0 mm 4 m/S 753 mmHg 90%
    23:00 +16°C° 0 mm 3 m/S 753 mmHg 91%

    übermorgen, 23 August, Freitag

    Zeit Temperatur Niederschläge Wind Luftdruck Luftfeuchtigkeit
    00:00 +14°C° 0 mm 3 m/S 753 mmHg 91%
    01:00 +13°C° 0 mm 3 m/S 754 mmHg 92%
    02:00 +13°C° 0 mm 3 m/S 754 mmHg 93%
    03:00 +12°C° 0 mm 3 m/S 754 mmHg 94%
    04:00 +12°C° 0 mm 3 m/S 754 mmHg 94%
    05:00 +12°C° 0 mm 3 m/S 754 mmHg 95%
    06:00 +13°C° 0 mm 3 m/S 754 mmHg 90%
    07:00 +16°C° 0 mm 3 m/S 754 mmHg 84%
    08:00 +17°C° 0 mm 3 m/S 755 mmHg 79%
    09:00 +19°C° 0 mm 3 m/S 755 mmHg 73%
    10:00 +20°C° 0 mm 3 m/S 755 mmHg 67%
    11:00 +21°C° 0 mm 3 m/S 755 mmHg 61%
    12:00 +22°C° 0 mm 3 m/S 754 mmHg 59%
    13:00 +22°C° 0 mm 3 m/S 754 mmHg 57%
    14:00 +22°C° 0 mm 3 m/S 754 mmHg 55%
    15:00 +22°C° 0 mm 3 m/S 754 mmHg 59%
    16:00 +21°C° 0 mm 2 m/S 754 mmHg 63%
    17:00 +21°C° 0 mm 2 m/S 754 mmHg 66%
    18:00 +20°C° 0 mm 1 m/S 754 mmHg 70%
    19:00 +18°C° 0 mm 1 m/S 754 mmHg 73%
    20:00 +15°C° 0 mm 1 m/S 754 mmHg 77%
    21:00 +15°C° 0 mm 1 m/S 754 mmHg 79%
    22:00 +14°C° 0 mm 1 m/S 755 mmHg 80%
    23:00 +14°C° 0 mm 1 m/S 755 mmHg 82%

    24 August, Samstag

    Zeit Temperatur Niederschläge Wind Luftdruck Luftfeuchtigkeit
    00:00 +14°C° 0 mm 1 m/S 755 mmHg 83%
    01:00 +13°C° 0 mm 1 m/S 755 mmHg 85%
    02:00 +13°C° 0 mm 1 m/S 755 mmHg 86%
    03:00 +13°C° 0 mm 1 m/S 755 mmHg 86%
    04:00 +13°C° 0 mm 1 m/S 755 mmHg 87%
    05:00 +12°C° 0 mm 1 m/S 755 mmHg 87%
    06:00 +14°C° 0 mm 1 m/S 755 mmHg 81%
    07:00 +16°C° 0 mm 1 m/S 755 mmHg 76%
    08:00 +19°C° 0 mm 1 m/S 755 mmHg 70%
    09:00 +21°C° 0 mm 1 m/S 755 mmHg 64%
    10:00 +20°C° 0 mm 0 m/S 755 mmHg 59%
    11:00 +22°C° 0 mm 0 m/S 755 mmHg 53%
    12:00 +24°C° 0 mm 1 m/S 755 mmHg 51%
    13:00 +24°C° 0 mm 1 m/S 754 mmHg 49%
    14:00 +25°C° 0 mm 1 m/S 754 mmHg 47%
    15:00 +24°C° 0 mm 1 m/S 754 mmHg 52%
    16:00 +24°C° 0 mm 1 m/S 753 mmHg 56%
    17:00 +23°C° 0 mm 1 m/S 753 mmHg 61%
    18:00 +21°C° 0 mm 1 m/S 753 mmHg 65%
    19:00 +19°C° 0 mm 1 m/S 753 mmHg 69%
    20:00 +16°C° 0 mm 1 m/S 753 mmHg 73%
    21:00 +16°C° 0 mm 1 m/S 753 mmHg 75%
    22:00 +16°C° 0 mm 1 m/S 753 mmHg 76%
    23:00 +15°C° 0 mm 2 m/S 753 mmHg 77%

    25 August, Sonntag

    Zeit Temperatur Niederschläge Wind Luftdruck Luftfeuchtigkeit
    00:00 +15°C° 0 mm 1 m/S 753 mmHg 79%
    01:00 +14°C° 0 mm 1 m/S 753 mmHg 81%
    02:00 +14°C° 0 mm 1 m/S 752 mmHg 83%
    03:00 +14°C° 0 mm 1 m/S 752 mmHg 85%
    04:00 +13°C° 0 mm 1 m/S 752 mmHg 87%
    05:00 +13°C° 0 mm 1 m/S 752 mmHg 89%
    06:00 +15°C° 0 mm 2 m/S 752 mmHg 84%
    07:00 +17°C° 0 mm 2 m/S 752 mmHg 79%
    08:00 +19°C° 0 mm 2 m/S 752 mmHg 75%
    09:00 +20°C° 0 mm 3 m/S 752 mmHg 70%
    10:00 +21°C° 0 mm 3 m/S 752 mmHg 65%
    11:00 +24°C° 0 mm 3 m/S 751 mmHg 60%
    12:00 +24°C° 0 mm 3 m/S 751 mmHg 60%
    13:00 +23°C° 0 mm 4 m/S 751 mmHg 60%
    14:00 +23°C° 0 mm 4 m/S 751 mmHg 60%
    15:00 +22°C° 0.4 mm 4 m/S 751 mmHg 67%
    16:00 +21°C° 0.4 mm 4 m/S 751 mmHg 75%
    17:00 +20°C° 0.4 mm 3 m/S 751 mmHg 82%
    18:00 +19°C° 0.1 mm 3 m/S 751 mmHg 85%
    19:00 +17°C° 0.1 mm 3 m/S 752 mmHg 88%
    20:00 +16°C° 0.1 mm 3 m/S 752 mmHg 91%
    21:00 +14°C° 0 mm 3 m/S 752 mmHg 91%
    22:00 +13°C° 0 mm 3 m/S 753 mmHg 91%
    23:00 +12°C° 0 mm 3 m/S 754 mmHg 91%

    26 August, Montag

    Zeit Temperatur Niederschläge Wind Luftdruck Luftfeuchtigkeit
    00:00 +12°C° 0 mm 3 m/S 754 mmHg 92%
    01:00 +12°C° 0 mm 2 m/S 754 mmHg 93%
    02:00 +12°C° 0 mm 2 m/S 754 mmHg 94%
    03:00 +10°C° 0 mm 2 m/S 755 mmHg 94%
    04:00 +10°C° 0 mm 2 m/S 755 mmHg 95%
    05:00 +10°C° 0 mm 2 m/S 755 mmHg 95%
    06:00 +12°C° 0 mm 2 m/S 756 mmHg 90%
    07:00 +14°C° 0 mm 2 m/S 756 mmHg 85%
    08:00 +15°C° 0 mm 2 m/S 756 mmHg 80%
    09:00 +17°C° 0 mm 2 m/S 756 mmHg 73%
    10:00 +18°C° 0 mm 2 m/S 756 mmHg 66%
    11:00 +19°C° 0 mm 2 m/S 757 mmHg 59%
    12:00 +20°C° 0 mm 2 m/S 756 mmHg 57%
    13:00 +20°C° 0 mm 2 m/S 756 mmHg 54%
    14:00 +21°C° 0 mm 2 m/S 756 mmHg 51%
    15:00 +20°C° 0 mm 2 m/S 756 mmHg 55%
    16:00 +21°C° 0 mm 1 m/S 756 mmHg 59%
    17:00 +20°C° 0 mm 1 m/S 755 mmHg 64%
    18:00 +18°C° 0 mm 1 m/S 756 mmHg 68%
    19:00 +15°C° 0 mm 1 m/S 756 mmHg 72%
    20:00 +14°C° 0 mm 2 m/S 756 mmHg 76%
    21:00 +13°C° 0 mm 2 m/S 756 mmHg 78%
    22:00 +13°C° 0 mm 1 m/S 756 mmHg 80%
    23:00 +12°C° 0 mm 1 m/S 756 mmHg 81%
    Mehr zeigen